Wind_Speed
9 10 10 10 10 10 10 11 11 11 11 11 12 12 12 12 12 13 13 14 15 15 15 16 16 16 16 16 17 17 19 19 18 13 11 15 11 9 10 10 7 4 8 11 11 8 7 8 11 14 12 9 5 3 7 7 5 3 3 4 5 5 5 6 3 1 2 1 5 5 5 4 3 4 3 4 4 8 13 11 10 12 12 14 19 27 30 29
9 10 10 10 10 11 11 11 11 12 12 12 12 12 12 12 13 13 13 14 15 15 15 16 16 16 16 16 16 16 19 19 18 16 20 19 13 12 12 12 10 6 7 12 15 13 8 7 10 12 7 4 4 5 5 4 5 4 3 4 5 5 6 8 5 3 3 2 3 4 3 3 3 5 3 3 4 9 12 8 10 13 14 16 18 23 26 27
10 10 10 10 10 11 11 11 12 12 12 12 12 12 13 13 13 13 14 14 15 15 15 16 16 17 16 17 16 16 17 17 11 13 19 18 17 19 16 15 15 11 10 13 16 15 13 12 13 11 5 4 4 5 6 4 5 4 4 4 5 6 7 10 6 5 5 5 6 5 4 4 4 5 4 5 6 8 11 7 9 10 12 14 14 17 20 22
11 10 10 11 10 11 11 12 12 12 12 12 13 13 13 14 14 14 14 15 15 15 15 16 16 17 17 16 15 15 14 10 4 8 11 8 15 20 19 17 15 13 12 14 16 15 16 15 13 9 6 5 5 6 6 5 4 3 5 6 5 5 8 9 4 6 7 7 5 5 6 6 2 3 2 6 6 4 7 7 10 12 12 13 12 13 14 15
11 11 11 11 11 11 11 12 12 12 13 13 13 13 13 14 14 14 15 15 15 15 15 16 16 17 17 16 14 12 8 3 1 3 2 3 10 15 17 16 13 12 13 15 14 14 16 14 10 7 5 4 5 5 6 8 6 3 6 8 8 8 9 6 4 6 6 6 3 4 5 6 2 3 2 5 4 2 4 7 12 14 13 13 12 10 10 10
12 11 11 12 11 11 11 12 13 13 13 13 14 14 14 14 14 14 15 15 15 15 15 15 16 16 16 16 11 5 2 1 3 1 5 6 9 11 14 14 11 11 14 14 12 11 11 11 8 6 5 4 6 6 6 8 7 4 5 6 8 9 9 7 4 4 6 6 2 2 4 4 5 4 4 5 5 1 8 11 12 13 13 14 13 10 9 8
12 12 11 12 12 12 12 13 13 14 13 13 14 15 15 15 14 14 14 15 15 14 15 14 15 15 16 15 6 1 1 7 11 6 6 8 10 11 11 11 11 14 14 12 10 8 8 8 8 5 4 5 6 8 8 8 8 6 6 6 8 8 8 8 3 3 5 3 2 2 4 5 4 3 4 6 5 7 14 13 14 12 11 14 11 10 9 8
13 13 12 12 12 12 12 13 14 14 13 13 14 15 15 15 14 15 15 15 15 14 14 14 14 14 14 12 4 1 3 10 15 11 10 11 12 12 10 10 12 16 15 12 11 9 7 8 8 6 5 6 7 8 8 8 7 7 7 7 8 8 8 8 4 1 2 2 3 3 5 5 5 4 3 7 4 9 15 14 14 12 11 11 9 9 8 7
13 13 12 12 12 12 13 13 14 15 14 14 14 15 15 15 15 15 15 15 14 14 13 14 14 13 10 7 3 2 6 10 11 11 13 12 13 13 12 11 15 18 14 13 13 11 8 6 9 8 6 6 8 8 7 6 5 8 9 8 7 8 8 6 5 3 2 3 3 4 6 7 7 5 4 8 3 9 14 14 13 12 11 9 8 8 6 7
14 14 13 13 12 13 13 14 15 15 15 14 15 16 16 16 16 16 15 15 14 13 13 14 13 11 8 5 3 2 7 6 6 11 11 11 12 14 14 12 17 20 13 13 14 12 9 7 9 7 5 5 6 7 7 6 5 6 7 7 8 9 7 5 4 4 3 4 4 4 6 6 6 3 4 8 4 12 15 13 12 11 10 8 7 6 4 5
14 14 14 13 13 14 14 14 15 16 16 15 15 16 16 16 16 16 15 15 14 13 13 13 11 9 6 6 2 4 7 6 8 7 6 9 12 15 15 14 18 21 15 11 14 16 15 15 11 4 4 3 5 8 7 6 6 5 3 4 9 7 5 5 5 5 2 3 5 4 6 7 5 4 6 8 6 14 15 13 12 11 9 8 7 6 5 4
13 14 14 14 14 14 15 15 15 16 16 16 16 16 16 17 17 16 15 14 14 13 12 11 8 5 5 5 6 12 10 6 7 8 7 8 11 13 13 15 18 21 17 10 13 21 21 18 10 4 3 2 4 5 5 8 7 7 5 4 6 5 5 7 5 6 3 3 5 3 5 6 6 7 9 9 5 13 14 12 11 10 9 7 7 6 4 4
13 14 14 14 14 15 15 16 16 16 17 17 17 17 17 17 17 16 15 14 14 12 10 9 6 4 4 3 10 19 15 11 9 10 9 7 9 10 11 14 17 20 20 15 15 19 17 12 8 4 3 3 3 3 7 10 6 5 5 3 4 4 6 8 6 7 6 5 6 4 4 6 6 9 10 10 7 12 12 11 11 9 8 7 6 5 5 5
13 14 14 14 14 15 16 16 17 17 18 18 17 17 17 17 17 16 15 14 12 9 7 7 4 3 3 6 14 19 15 16 18 12 10 9 11 12 12 14 16 18 20 20 19 14 10 10 7 4 4 3 4 6 8 7 4 4 3 3 2 2 7 8 7 10 9 6 7 7 5 6 7 9 9 10 8 12 12 11 11 9 8 7 6 7 6 5
14 14 14 14 15 16 16 16 17 17 18 18 18 18 18 17 16 15 14 12 10 7 7 6 5 5 2 8 16 14 9 14 20 17 12 13 15 12 14 17 18 20 21 22 17 8 5 6 3 2 3 4 4 5 5 4 3 2 1 4 3 4 8 8 8 12 11 6 9 8 4 6 7 10 11 12 9 12 12 10 11 10 9 7 6 7 7 5
14 14 14 14 15 16 17 17 17 18 19 19 19 18 17 16 13 11 11 9 8 4 3 3 9 9 2 5 9 9 9 11 15 17 13 17 18 13 16 18 18 20 19 16 12 7 5 3 1 2 3 4 4 4 4 3 4 3 4 4 4 5 8 7 8 13 12 7 8 8 3 5 6 9 11 11 11 15 13 10 11 11 9 8 6 6 7 6
14 14 14 14 16 17 17 17 18 18 19 20 20 18 15 11 9 10 8 6 5 2 7 5 7 8 5 8 9 7 11 12 13 16 15 18 19 16 15 13 11 13 10 8 8 6 3 2 1 2 3 4 4 4 3 4 4 3 4 4 5 7 7 5 5 11 12 7 7 7 4 7 8 10 8 4 15 15 13 12 12 11 10 7 6 6 6 7
14 15 15 14 16 17 17 17 18 18 19 21 20 18 13 7 6 8 5 1 0 1 7 8 4 3 5 9 8 7 12 15 16 16 16 17 19 16 13 7 4 6 3 3 6 4 1 2 2 2 3 4 4 4 4 5 6 4 5 4 5 8 7 5 4 8 11 8 8 8 7 9 10 10 6 5 13 14 13 12 11 11 10 8 6 7 6 7
14 15 15 15 16 17 17 17 17 18 19 21 19 14 7 3 3 4 3 2 2 1 3 5 6 2 2 7 12 13 14 18 17 14 16 17 17 14 11 6 2 4 3 1 3 4 3 2 3 4 4 5 6 6 6 9 9 7 5 4 5 6 8 7 8 10 11 8 6 8 7 8 8 8 6 3 7 13 14 10 9 10 9 8 7 6 7 8
14 15 15 15 16 17 17 17 18 18 18 19 18 11 2 1 1 1 2 5 7 8 6 4 9 6 7 8 8 10 15 17 13 11 17 19 14 10 8 7 4 4 4 4 5 5 4 3 4 5 6 7 8 8 10 10 9 8 6 5 5 4 8 5 9 9 8 7 5 7 5 5 6 8 7 3 1 9 14 11 9 9 8 8 7 7 7 7
14 15 15 15 16 17 17 18 18 17 16 16 14 6 2 3 2 1 2 7 12 16 14 10 13 13 13 13 12 5 11 11 10 10 17 20 13 7 6 7 6 5 6 7 6 3 4 4 6 7 8 10 9 8 10 10 8 8 6 7 6 4 8 3 10 9 6 6 5 4 3 4 6 7 8 4 1 6 13 14 11 11 10 9 9 9 8 6
15 14 15 16 16 17 18 18 18 17 17 15 8 4 6 6 5 7 4 5 10 16 17 15 15 15 18 22 23 10 7 7 10 10 16 18 10 6 6 7 7 6 7 8 5 3 4 5 8 10 9 10 10 9 9 10 9 7 5 5 5 4 7 3 5 6 6 4 3 3 2 5 6 6 9 7 3 5 12 15 15 14 12 10 10 9 8 8
15 14 16 16 17 19 19 19 19 18 19 14 8 8 8 8 10 14 7 3 8 11 14 15 14 13 15 20 20 13 8 6 9 10 17 17 8 7 7 7 8 7 7 8 6 4 4 7 10 12 10 9 10 11 9 8 7 5 6 4 4 6 6 4 1 4 6 3 3 5 3 4 5 5 7 8 7 4 11 16 16 15 14 14 14 12 12 11
14 15 16 16 18 19 19 21 19 17 16 14 14 15 11 10 12 12 5 2 6 8 12 16 15 11 15 16 11 10 6 5 7 10 19 16 8 7 6 8 9 7 7 10 10 7 7 10 12 11 11 10 9 10 8 6 4 4 5 3 2 7 6 5 3 1 1 1 3 6 2 3 4 5 6 7 8 5 7 12 13 14 14 15 14 14 14 15
15 15 16 17 18 19 21 20 14 12 11 11 14 12 9 9 10 8 4 2 4 5 8 13 11 10 18 19 12 8 4 4 6 7 20 18 10 7 6 6 7 7 9 12 11 8 10 10 11 12 12 11 10 9 7 7 4 2 1 2 4 9 9 9 8 5 4 5 2 5 3 5 5 5 8 7 6 7 6 8 10 13 13 12 13 13 12 12
15 15 16 16 17 19 18 10 7 13 11 10 10 7 5 4 5 5 3 2 4 2 4 7 7 11 17 14 9 6 5 6 9 7 19 19 15 9 6 4 4 7 9 10 7 5 8 9 9 13 14 13 11 9 8 7 4 1 2 5 7 8 9 10 9 5 1 3 3 4 4 4 5 5 9 8 8 9 7 8 9 11 14 13 12 12 10 10
15 15 15 15 16 17 11 6 12 14 7 7 11 8 4 5 4 3 1 1 3 2 5 3 4 12 14 11 10 7 4 6 8 8 14 18 15 9 7 5 4 7 7 6 5 3 8 10 8 9 12 12 10 7 7 7 5 1 4 6 7 8 9 10 9 6 3 3 3 2 2 3 4 6 7 6 7 8 8 9 9 7 13 17 14 12 13 11
15 15 15 16 16 14 11 14 16 10 6 9 17 12 8 9 6 2 2 0 2 4 5 1 3 9 8 10 14 9 5 6 7 8 12 18 15 6 6 8 5 7 8 6 4 4 8 11 10 8 6 7 6 5 5 6 5 3 5 8 9 7 8 8 6 6 3 1 3 3 1 2 4 5 7 7 5 1 4 6 4 3 4 13 14 11 10 8
15 15 15 16 17 12 10 14 12 8 11 14 15 15 14 10 4 1 1 1 2 3 4 2 3 5 5 9 13 8 7 5 3 7 10 15 15 7 4 8 8 7 9 8 6 5 6 9 11 9 6 5 4 5 4 4 4 4 7 8 9 6 5 1 1 3 3 1 3 3 1 2 5 5 5 5 3 2 5 7 8 10 11 11 10 9 9 8
15 15 15 16 16 10 8 12 14 9 16 18 16 15 12 7 2 2 1 2 2 3 3 1 2 5 6 8 9 8 9 8 4 7 8 9 12 7 2 4 7 6 6 7 8 9 7 6 8 6 4 4 3 3 3 3 5 5 6 6 6 6 3 2 2 3 4 2 4 4 4 4 4 5 3 2 2 1 5 7 7 9 12 12 11 9 9 8
15 15 15 15 14 10 9 8 8 6 12 17 15 10 6 3 1 3 2 3 2 2 3 1 4 8 10 9 7 7 10 10 5 8 8 6 8 6 2 2 4 3 3 3 6 11 10 6 4 2 3 6 3 2 4 7 8 6 5 4 2 4 2 3 4 3 0 4 4 4 5 4 4 3 3 5 4 5 6 8 8 9 9 9 8 8 7 5
17 17 17 17 15 14 12 9 4 5 11 16 12 4 1 2 1 2 2 4 2 3 4 5 8 9 11 10 8 9 9 8 7 8 9 6 5 6 4 3 3 2 3 3 3 8 8 5 4 2 4 7 5 4 5 7 7 6 4 3 3 1 1 1 2 1 2 5 5 6 7 5 4 4 2 6 7 8 9 7 8 9 7 7 7 6 6 6
19 19 20 19 17 19 21 17 12 10 13 16 9 1 1 1 2 4 5 4 1 5 4 8 11 10 11 10 7 10 9 7 8 7 8 9 6 6 7 7 5 4 3 4 4 5 5 4 5 5 4 5 6 4 3 4 3 5 5 3 4 2 1 2 3 3 3 5 6 7 5 3 1 2 3 7 8 8 9 9 9 9 7 7 7 8 8 9
21 22 24 22 20 22 23 20 16 11 12 12 4 1 1 2 3 5 6 5 3 6 5 9 13 11 11 9 7 10 9 7 8 7 6 8 6 5 7 9 10 6 3 3 3 4 4 4 5 6 4 6 7 5 5 4 3 4 4 4 5 4 3 3 3 3 4 4 3 2 2 2 3 3 4 5 8 9 10 9 10 11 9 8 8 9 9 9
23 22 21 20 21 21 21 19 13 7 9 7 1 1 2 3 3 3 4 5 5 8 7 11 13 9 9 9 10 11 10 6 9 8 5 6 6 5 5 8 11 8 4 3 3 2 4 4 7 9 7 8 9 6 5 4 2 3 4 5 4 5 5 4 4 5 4 1 2 1 1 0 2 3 4 6 10 10 10 11 12 12 10 10 9 9 9 9
22 19 15 16 20 15 13 15 12 9 7 3 1 2 3 3 4 2 1 4 6 7 5 7 7 2 3 5 6 8 10 8 8 8 5 6 7 7 6 6 10 10 6 5 2 2 3 4 8 13 11 9 10 9 9 6 3 3 3 5 6 6 6 3 4 3 4 3 2 2 2 3 1 2 5 8 10 10 11 11 11 11 11 11 9 9 10 10
17 15 11 15 18 12 8 12 14 11 6 2 2 3 3 4 7 6 4 4 6 9 6 1 3 0 2 3 3 5 9 7 7 7 4 6 6 8 9 7 9 12 10 7 3 3 4 4 5 8 8 10 11 10 10 9 6 4 4 5 6 5 4 3 1 2 3 2 3 3 5 1 1 1 4 5 9 9 10 10 10 11 12 12 11 11 12 11
15 12 10 13 14 11 9 16 17 10 3 1 3 4 4 5 7 8 6 4 6 8 5 2 2 3 3 3 5 6 8 6 6 6 4 5 5 7 10 8 10 14 14 11 5 3 4 3 5 1 1 7 10 8 7 8 8 6 5 5 4 4 4 2 2 2 2 2 3 2 5 2 2 0 4 4 7 7 8 9 10 11 11 11 9 10 11 10
12 6 6 7 9 12 15 19 16 6 1 3 3 3 4 6 10 9 4 2 4 5 4 3 1 2 2 3 4 4 9 8 6 5 4 4 3 4 3 3 7 13 15 14 7 4 3 1 3 3 2 4 6 5 4 5 7 6 5 4 1 4 4 3 3 4 3 3 2 1 3 2 0 0 4 5 6 6 6 7 9 10 10 9 7 8 8 8
7 3 4 4 11 19 20 18 10 3 2 3 3 4 6 8 10 7 1 4 3 3 3 5 5 4 5 6 5 2 5 7 5 4 3 1 0 3 5 5 1 3 10 15 11 4 2 3 1 5 4 2 3 4 6 6 6 5 4 3 2 1 2 1 2 3 4 3 2 2 1 3 2 2 2 3 4 6 8 8 8 9 10 8 7 6 6 6
4 2 5 2 19 25 19 11 4 3 3 3 4 7 8 8 7 1 5 3 1 3 2 2 5 3 3 6 6 6 2 2 3 2 2 3 4 1 6 8 7 6 4 9 9 4 2 4 3 4 3 3 4 5 8 7 5 6 5 4 4 2 2 2 3 3 2 3 3 4 2 4 2 3 3 2 3 5 10 11 8 8 9 7 5 5 6 6
2 1 5 5 24 25 12 4 3 3 3 4 6 7 7 7 5 2 4 2 1 2 3 2 3 3 3 4 4 5 4 3 4 3 3 4 4 3 8 11 9 7 4 1 2 2 1 4 4 2 3 4 6 4 7 9 6 4 4 5 6 4 2 3 3 4 1 2 2 4 3 3 2 3 4 3 4 5 9 11 8 7 7 6 5 6 7 8
1 2 8 5 22 19 6 2 3 4 4 6 7 10 10 7 3 3 2 0 2 1 2 1 3 3 2 4 5 5 4 4 4 3 3 3 3 4 10 14 11 8 6 2 3 6 4 3 4 1 2 4 7 8 3 5 4 2 2 2 4 7 6 5 5 3 3 3 2 4 1 3 1 3 4 4 5 7 9 9 9 7 5 6 8 8 8 9
1 1 5 5 19 14 4 2 3 3 5 7 9 12 9 2 2 2 1 1 2 2 0 2 3 2 2 3 4 4 4 3 2 2 3 3 2 6 12 13 11 8 6 3 3 3 2 1 3 3 2 3 6 8 6 4 3 2 4 8 7 2 1 1 2 4 2 2 4 6 2 3 2 4 5 6 7 8 9 9 8 7 6 6 8 8 9 10
2 1 2 4 13 9 3 2 2 3 4 6 8 8 5 2 1 3 4 4 4 1 2 2 3 4 4 3 4 5 4 3 2 2 4 3 3 7 11 11 10 8 5 8 8 2 1 1 2 5 4 2 1 2 2 3 4 2 6 12 12 8 6 5 3 5 3 2 3 4 3 2 4 6 6 6 7 9 9 9 7 7 7 6 7 8 8 9
1 1 1 1 5 4 3 3 3 3 4 5 5 4 4 2 2 1 3 4 5 3 3 1 3 4 5 4 4 5 5 5 4 2 4 4 3 5 7 8 10 10 9 12 13 4 2 3 3 6 5 5 4 3 3 3 3 5 9 12 10 7 6 7 4 3 2 2 5 4 1 6 6 6 7 7 7 8 8 8 7 6 6 7 8 9 9 8
1 1 1 1 2 3 3 4 4 4 5 5 2 2 3 3 2 1 3 3 3 3 2 2 2 2 3 3 3 4 5 6 7 5 5 5 4 3 6 6 8 10 10 10 10 5 4 4 3 5 5 4 5 3 1 1 6 9 10 11 10 8 7 8 5 3 2 4 2 4 1 6 6 5 8 7 7 8 8 8 7 6 7 8 9 10 10 9
2 2 2 1 1 3 4 5 6 5 7 7 2 0 2 4 2 2 2 3 2 1 2 2 4 3 2 1 2 1 2 3 6 5 3 4 3 2 5 6 6 8 7 5 6 4 5 3 4 4 5 4 5 5 5 5 7 11 11 10 10 9 8 8 5 3 4 4 4 5 3 5 5 7 8 8 7 8 8 8 8 8 9 10 11 11 10 10
2 1 3 2 2 2 4 6 7 6 7 6 2 0 1 3 1 2 1 2 2 0 2 1 3 5 4 2 2 3 1 2 4 3 1 2 3 2 3 3 4 5 5 4 3 3 3 2 3 3 4 4 5 6 7 7 7 10 12 11 9 9 9 8 5 4 6 6 6 9 9 5 4 7 9 9 8 9 9 9 9 10 10 10 11 10 9 9
1 0 1 1 3 4 4 7 7 6 5 2 1 1 2 2 2 2 2 2 1 2 0 1 3 4 5 7 5 4 4 5 5 2 2 3 1 1 2 1 1 2 3 2 1 2 4 1 4 2 3 2 5 6 7 8 9 10 12 11 9 8 9 8 6 6 5 7 8 10 10 5 3 7 10 10 9 9 11 11 10 10 9 9 10 9 9 9
3 4 3 1 2 5 6 6 4 3 1 1 1 1 1 2 2 1 1 1 1 2 2 0 3 5 7 9 7 5 5 6 5 3 3 2 3 2 2 3 3 3 2 1 1 2 3 2 2 2 3 1 2 6 7 8 10 10 10 11 10 6 5 5 5 4 3 7 9 8 5 3 4 7 10 10 10 11 12 10 9 9 9 10 10 10 9 9
3 5 5 2 3 6 6 4 2 3 1 0 2 2 0 2 3 3 0 2 2 1 2 3 4 5 5 6 6 5 5 6 6 5 6 4 1 3 4 4 4 4 3 1 1 1 2 3 2 2 3 1 1 6 7 6 7 5 3 5 7 4 3 4 6 7 6 5 6 4 3 4 6 8 9 11 11 12 10 8 7 7 8 10 10 10 10 9
Wind_Direction
328 329 331 331 331 331 330 330 331 330 330 330 331 332 331 330 327 325 325 324 323 323 323 322 322 323 324 323 324 328 331 327 319 307 257 254 253 223 231 253 266 249 236 229 215 203 194 206 228 236 239 242 229 227 254 255 239 212 195 224 246 249 248 264 282 112 148 23 56 68 350 16 56 335 351 2 10 85 77 69 67 63 80 96 112 125 131 131
324 326 328 329 330 329 328 329 329 329 328 328 329 329 328 327 325 324 323 322 322 322 322 322 322 323 324 323 327 335 334 322 307 282 256 255 245 219 227 245 254 248 228 215 211 211 198 197 217 227 229 229 219 214 230 231 224 213 203 219 229 240 249 271 301 80 113 42 27 81 71 15 18 344 354 352 351 91 91 80 85 81 93 102 113 125 133 135
321 323 324 325 327 326 326 326 327 327 326 327 326 326 327 326 325 324 323 322 321 321 321 321 322 323 324 325 331 343 333 316 299 267 265 260 233 220 225 243 248 244 241 213 203 210 210 207 209 214 216 226 233 217 216 211 219 212 205 237 238 238 261 282 307 62 64 46 20 29 51 343 345 2 348 333 352 99 117 121 115 110 117 121 126 132 138 140
318 318 320 322 324 322 323 322 323 324 324 324 324 324 325 326 325 322 322 321 319 320 319 320 323 322 325 327 335 345 330 309 278 253 270 254 216 212 216 234 241 240 241 214 206 223 231 226 213 206 211 223 236 230 223 207 210 205 199 231 255 274 283 289 329 58 56 58 35 343 349 327 333 80 343 321 345 103 145 153 139 134 133 128 129 135 139 140
314 314 316 317 319 320 319 318 319 320 322 322 322 323 323 324 322 319 319 318 318 317 316 319 320 322 324 327 335 341 333 313 290 234 210 164 189 198 207 222 235 230 224 212 219 250 256 248 227 206 212 231 236 233 233 213 200 218 223 229 245 265 270 281 7 63 76 69 39 316 312 304 334 72 318 303 305 261 159 143 128 130 134 130 132 133 135 141
312 312 313 314 316 317 317 316 316 316 318 320 320 321 320 322 319 318 316 314 315 313 314 316 317 323 324 327 333 335 335 288 324 2 139 135 157 178 198 213 225 214 206 211 229 264 267 250 235 213 207 232 243 241 240 217 192 225 249 239 238 241 251 274 333 65 87 72 34 309 292 312 15 4 295 284 284 158 126 123 113 118 125 125 130 131 136 147
312 311 311 314 314 314 316 314 313 313 315 317 318 318 317 319 318 316 313 311 312 310 313 315 318 323 327 334 333 213 220 264 283 274 181 160 164 184 200 208 215 196 190 207 223 248 259 240 230 219 208 225 246 249 250 228 198 222 252 251 252 249 254 266 273 96 88 83 252 292 323 332 2 332 288 289 304 102 114 113 107 109 110 114 120 128 143 149
311 311 309 312 313 312 314 312 311 311 313 314 315 316 316 315 315 312 309 308 309 311 312 315 319 325 334 344 335 215 223 256 269 249 201 184 186 202 206 201 201 186 183 204 216 231 250 241 230 226 212 217 238 239 243 242 213 219 246 252 261 266 266 266 261 211 130 178 250 276 292 286 263 259 262 279 311 103 115 111 111 113 108 113 121 128 141 143
311 311 308 309 312 312 312 311 310 309 310 313 314 315 314 312 312 309 307 307 309 311 311 315 318 323 336 333 307 292 250 254 256 218 197 200 207 207 204 200 190 180 181 207 224 239 246 234 230 234 226 230 250 252 261 268 222 205 228 241 247 259 267 270 272 257 154 168 214 241 255 251 239 240 252 267 289 106 112 107 112 115 110 115 120 121 131 139
310 311 309 307 310 312 311 310 307 308 309 311 312 312 311 310 309 307 307 309 310 310 311 315 316 320 328 293 256 277 254 227 192 193 196 205 208 199 195 196 187 179 182 204 223 241 247 243 237 240 255 260 268 271 276 272 243 209 221 243 249 258 266 268 274 243 180 193 209 226 257 260 247 221 230 251 193 118 114 112 114 111 109 108 108 103 94 121
309 310 310 308 310 312 310 308 306 307 307 309 310 309 309 307 305 305 306 307 307 310 312 316 318 318 307 286 252 241 241 185 164 184 204 206 205 200 188 187 187 181 186 201 219 232 236 244 249 246 253 275 287 275 275 276 286 281 262 261 257 268 286 289 300 275 207 185 203 226 258 267 267 234 228 242 179 129 125 125 124 119 116 109 105 98 70 81
309 309 311 309 309 309 308 307 306 306 306 307 308 306 305 303 302 302 302 302 304 308 312 314 319 314 294 286 235 236 241 209 182 175 195 214 210 204 180 183 192 184 191 207 225 232 235 246 260 259 248 314 296 269 299 307 306 290 285 285 271 290 288 269 271 264 243 178 190 207 268 264 248 237 236 244 181 137 134 131 128 120 116 111 112 114 98 84
309 309 311 310 309 308 307 306 306 306 305 306 305 304 303 301 302 302 300 301 304 308 312 311 299 282 293 270 235 247 259 259 234 178 178 210 202 194 178 189 199 191 198 217 235 241 246 269 297 308 311 324 286 300 322 308 299 272 270 272 292 321 271 243 228 235 231 210 183 165 264 263 239 234 235 238 183 140 136 132 129 119 116 121 122 121 112 110
309 309 310 310 310 308 307 306 307 306 305 306 304 303 301 301 303 303 302 301 304 306 305 310 280 232 257 255 263 269 267 265 252 202 168 193 195 193 196 195 199 201 208 226 243 252 253 273 295 311 334 311 284 326 325 307 293 277 283 269 248 279 263 237 211 218 216 205 152 144 232 255 255 252 241 235 189 142 134 133 130 124 122 125 128 126 128 143
308 310 309 309 310 308 307 306 307 307 307 307 303 302 299 301 304 303 306 301 298 288 284 297 226 202 285 267 279 285 255 252 242 209 179 194 200 198 202 195 195 210 220 230 249 279 268 275 292 264 310 294 279 299 297 296 279 240 245 275 222 208 255 251 223 212 201 184 138 136 233 257 254 254 246 236 197 135 129 133 129 129 131 136 143 136 138 147
308 308 308 310 309 308 308 307 309 308 308 307 304 302 297 301 306 306 308 294 291 278 242 252 206 202 283 272 286 287 233 226 217 203 193 198 206 204 199 195 197 215 224 227 246 285 272 274 316 218 257 279 265 251 265 300 283 216 183 237 234 219 251 263 237 207 191 176 143 141 238 273 259 262 261 228 165 128 132 140 136 137 139 147 151 140 136 129
307 308 308 310 309 308 308 308 311 310 310 308 306 304 299 304 306 300 301 279 285 226 200 229 208 197 251 285 303 280 215 205 200 200 197 200 211 208 194 192 196 213 227 221 229 259 247 191 191 232 230 242 246 227 234 260 256 232 202 220 243 241 249 262 226 189 179 167 152 157 211 258 262 280 296 150 131 129 144 148 146 146 144 150 145 133 132 127
307 308 308 310 309 308 309 309 312 311 312 309 308 307 303 304 291 284 291 263 17 202 231 256 250 186 253 261 260 233 197 195 205 202 192 202 218 213 193 187 179 193 218 231 223 224 199 184 177 221 241 230 241 214 193 224 229 215 201 203 242 251 252 239 183 174 176 162 151 161 207 250 262 281 305 126 131 135 150 151 147 147 142 144 139 134 129 128
308 309 309 310 309 309 310 310 311 312 314 313 315 317 303 290 284 261 252 227 145 157 239 221 201 178 287 238 224 223 201 188 197 198 185 195 218 217 191 178 168 189 190 171 218 203 181 196 193 220 243 227 228 216 214 234 239 241 224 209 235 254 260 225 172 177 175 153 150 166 204 245 267 285 288 231 158 138 145 147 141 144 144 145 151 155 139 134
308 309 310 311 310 310 310 310 310 312 316 319 329 340 323 249 2 124 222 233 217 237 269 204 197 236 289 284 259 219 190 180 184 194 185 185 205 215 183 169 177 202 201 179 201 205 169 181 212 215 223 232 231 222 237 253 257 271 282 285 276 269 280 244 156 171 153 128 189 187 192 247 277 293 296 287 148 128 136 140 143 148 148 151 161 164 142 138
308 310 312 312 311 311 310 310 309 309 312 316 326 336 280 300 344 68 225 225 225 233 255 245 216 238 258 274 285 208 158 174 182 187 187 182 192 206 169 167 182 196 213 206 205 199 167 187 221 221 221 234 241 230 239 258 271 281 285 294 305 305 296 262 149 166 125 114 200 166 98 292 290 292 295 310 76 132 142 146 153 158 161 164 165 166 150 134
310 310 312 312 311 311 310 309 305 305 305 300 296 263 260 283 308 323 303 244 243 227 236 244 230 244 250 260 269 233 152 180 183 179 181 176 181 195 167 170 189 196 204 212 210 181 190 215 221 223 225 229 241 243 237 243 254 271 277 285 302 304 306 313 136 138 109 117 201 123 102 273 278 278 286 292 253 175 159 159 162 163 166 169 169 167 154 138
310 310 314 313 312 312 309 307 302 297 292 276 240 223 253 283 308 325 325 275 279 240 228 231 226 240 246 260 261 215 181 188 182 177 171 168 182 197 179 178 199 206 194 209 214 175 190 224 216 219 227 224 236 245 237 237 241 245 248 255 273 278 292 305 328 127 144 169 156 131 160 266 297 304 301 295 280 224 168 167 167 167 169 173 176 171 161 157
311 312 314 312 314 313 310 307 300 293 287 264 244 245 260 284 302 321 329 260 282 255 231 219 212 221 230 248 246 194 194 206 195 173 162 169 187 187 197 190 196 218 201 203 213 209 217 215 207 215 227 225 235 248 239 228 238 244 233 198 250 281 290 292 305 95 143 314 113 120 69 322 291 281 289 290 286 273 190 174 168 171 177 174 174 177 171 165
312 312 312 315 317 314 313 311 303 311 306 261 253 272 291 285 289 328 2 267 263 251 230 212 205 210 215 230 232 192 178 220 247 172 158 177 184 166 211 201 188 219 211 208 210 218 233 214 191 203 223 230 231 243 241 215 211 273 239 190 243 279 299 307 321 8 23 326 317 101 60 304 267 238 256 268 270 268 241 207 187 177 180 177 173 180 179 167
311 311 312 315 316 318 320 309 304 325 311 256 261 304 343 299 291 338 9 270 268 238 173 170 176 191 197 210 217 184 161 212 251 187 159 180 188 174 209 204 184 215 211 215 213 210 237 226 193 194 207 222 225 233 236 208 162 68 235 217 227 254 285 295 303 331 81 256 288 94 118 270 293 261 245 242 248 258 258 241 215 178 171 179 181 176 170 171
309 308 310 311 315 325 325 295 315 324 293 288 323 338 6 359 337 333 26 296 275 184 144 141 164 175 179 182 180 175 178 192 215 202 170 181 191 185 205 203 182 214 219 218 220 209 217 228 231 208 198 209 219 224 215 170 132 185 246 249 237 229 250 261 265 267 220 219 320 46 148 249 290 271 256 245 245 259 273 265 248 209 175 173 176 172 167 174
306 307 309 309 311 311 293 289 311 314 268 318 346 353 357 353 342 348 80 244 255 138 132 160 171 166 171 174 173 184 222 184 174 202 184 183 192 184 203 223 206 211 225 215 215 223 201 210 233 233 205 204 202 187 167 135 136 197 214 243 251 227 231 248 257 265 246 197 328 334 327 296 274 271 281 273 261 316 351 329 341 16 135 158 162 158 146 146
305 307 305 309 310 303 289 278 275 288 309 326 343 342 338 339 341 49 85 216 220 138 144 147 139 168 180 171 172 187 222 222 180 186 177 180 199 204 204 234 240 235 237 225 224 246 217 200 211 223 216 200 177 158 153 144 169 198 203 234 264 255 230 188 43 319 346 61 255 255 209 266 280 290 297 282 282 78 75 37 36 54 71 109 125 111 113 126
303 303 303 311 309 315 330 282 257 292 332 334 331 324 324 332 6 94 125 234 210 155 155 123 113 175 183 167 173 192 213 243 241 173 172 172 192 215 260 241 248 260 250 229 230 253 261 218 203 218 206 161 120 121 162 214 220 207 209 228 265 274 259 76 59 29 15 319 243 235 205 205 263 301 349 23 328 284 109 77 51 60 73 89 104 114 134 148
300 298 301 304 295 304 327 284 255 317 343 341 332 312 309 336 69 137 174 263 261 141 130 134 148 168 179 172 177 194 207 242 244 164 171 168 172 204 267 256 247 275 281 258 240 249 259 246 220 231 175 132 117 220 202 224 232 212 202 196 221 295 335 12 1 41 336 263 251 263 261 232 234 268 344 23 26 31 66 87 84 73 71 82 98 119 132 128
298 298 295 291 282 278 269 231 216 352 354 351 340 308 327 87 182 219 251 313 295 180 168 175 172 174 182 180 185 188 195 234 237 174 168 166 163 189 198 201 193 197 266 272 241 246 249 243 240 241 188 150 157 216 212 221 227 201 193 152 121 325 6 40 317 335 228 246 227 232 251 248 226 234 321 20 30 40 49 67 81 80 85 90 78 70 66 54
300 300 293 285 273 262 252 244 261 304 338 343 332 273 119 143 207 225 242 297 204 180 177 164 172 179 179 185 194 184 188 217 214 186 172 163 165 186 192 210 206 166 210 234 214 229 245 260 260 246 204 155 155 171 189 220 202 162 175 139 129 159 134 195 238 228 225 241 224 205 214 241 247 272 331 32 34 38 53 56 61 65 75 85 66 45 43 46
303 299 291 284 270 259 255 255 262 281 317 323 312 152 150 205 244 223 229 272 245 232 237 165 167 180 178 192 205 179 184 218 198 177 169 163 166 184 186 210 223 205 193 237 224 186 198 239 247 245 215 169 177 179 180 209 189 167 179 148 149 164 162 202 208 196 216 252 263 182 143 182 170 247 292 46 47 37 48 49 50 53 54 58 49 39 39 40
307 301 296 287 274 262 253 247 242 250 290 300 265 161 199 201 260 242 238 278 276 264 244 163 160 182 182 195 211 186 177 201 192 177 167 163 171 189 183 196 218 222 187 200 255 197 199 220 207 220 224 176 174 186 199 236 247 210 181 155 181 187 170 209 219 190 163 81 331 16 79 260 164 242 296 58 56 40 44 43 45 48 48 52 42 35 38 38
312 309 301 276 269 269 247 229 213 212 253 273 147 209 222 220 248 246 263 290 299 296 264 163 148 169 180 199 228 197 181 190 185 172 167 175 178 188 193 186 201 218 203 172 234 225 204 247 200 201 214 179 160 177 192 208 234 233 199 183 207 198 163 182 253 237 113 97 269 170 103 326 9 341 343 57 58 39 38 37 40 42 42 45 40 37 41 43
316 312 297 264 262 267 229 191 178 189 226 240 193 227 238 248 256 271 302 309 317 314 295 185 122 138 188 209 259 204 186 194 180 166 175 189 188 189 198 198 188 206 216 190 215 232 195 260 235 192 200 183 166 176 191 198 207 225 236 207 200 203 190 163 227 298 79 120 258 161 142 227 126 310 323 54 65 40 33 34 37 38 39 42 39 42 48 50
314 305 286 268 255 236 191 162 162 178 207 225 246 256 256 263 270 285 308 333 333 326 327 40 134 207 195 205 243 200 170 175 175 170 178 183 192 192 194 201 187 196 213 206 218 251 193 250 293 305 199 184 167 168 195 214 215 215 240 234 182 168 211 206 178 231 124 147 269 151 124 80 82 249 323 31 69 53 38 39 44 43 45 49 43 45 53 54
304 292 281 272 222 190 166 155 162 181 209 211 236 250 247 258 258 262 295 2 330 319 335 11 350 265 302 280 261 186 162 168 168 163 173 181 216 234 209 210 194 194 204 201 207 246 188 136 301 280 269 205 179 172 192 219 227 235 266 274 210 147 172 199 191 183 149 157 232 107 86 33 254 222 354 22 60 67 56 53 57 54 53 52 45 45 49 51
285 255 294 267 169 160 156 156 169 199 206 215 236 245 251 264 257 244 68 47 339 315 344 353 347 355 333 305 323 18 167 168 141 141 160 130 62 301 340 10 40 217 216 202 193 206 180 109 227 270 308 299 213 188 179 186 196 217 257 269 266 187 147 134 244 192 147 149 180 127 80 273 243 105 67 50 63 82 83 72 64 64 63 52 42 48 49 48
268 237 296 190 146 147 150 158 191 208 212 249 251 251 263 279 274 203 90 74 333 310 301 320 329 353 329 312 352 5 330 141 98 110 118 54 65 34 339 3 29 13 287 213 194 178 159 142 185 257 309 301 248 191 176 189 186 173 193 215 219 213 131 106 293 269 146 126 157 143 166 264 267 96 104 73 47 80 90 85 74 67 70 62 45 51 50 44
252 210 286 153 141 146 150 167 222 202 217 244 237 247 257 264 276 57 77 110 182 281 266 257 311 313 299 315 354 350 336 42 38 33 96 67 59 44 357 4 22 33 33 216 254 351 92 130 148 219 240 251 272 249 191 201 215 192 188 205 202 200 166 151 215 252 169 90 87 108 122 267 280 100 116 96 53 70 84 88 87 75 74 72 55 51 50 44
218 247 284 189 149 153 160 190 218 222 236 248 248 255 253 250 289 27 43 145 168 213 269 289 324 321 326 341 352 346 358 55 35 13 76 67 34 22 20 23 26 29 38 31 338 346 6 94 127 175 296 308 312 310 271 194 204 240 292 277 212 208 205 183 177 175 154 157 123 97 104 256 239 106 116 110 80 72 76 80 82 77 69 65 57 50 51 48
298 293 297 182 163 171 200 199 213 229 238 252 254 256 263 303 357 329 342 291 213 170 62 327 337 330 306 327 349 352 12 53 46 49 82 68 29 31 33 34 36 38 35 12 340 334 344 38 107 102 28 346 331 326 339 11 25 29 22 15 6 339 166 121 86 81 100 188 143 125 166 244 174 128 112 99 81 70 69 69 70 69 63 60 59 49 47 51
311 325 330 183 175 189 242 256 265 276 263 274 268 260 279 345 281 288 336 317 284 121 107 307 341 358 329 343 10 353 354 22 31 100 104 85 53 42 34 35 44 45 28 8 4 5 158 19 82 110 129 163 216 294 309 320 320 353 31 27 18 17 50 72 63 64 55 341 64 102 154 172 144 132 116 99 87 76 70 68 63 62 62 62 64 57 45 45
307 156 308 210 180 203 259 264 266 276 278 288 287 276 292 303 250 271 6 324 314 44 78 341 4 10 344 5 23 349 338 353 354 17 72 68 60 32 21 36 44 32 23 19 11 15 93 35 63 103 120 149 156 174 218 263 339 33 31 27 22 19 57 87 86 77 105 77 40 2 141 136 139 131 115 100 86 80 73 70 67 61 63 63 62 59 49 40
289 263 240 143 182 222 252 264 246 243 255 253 245 261 267 260 255 54 45 336 324 26 38 350 344 339 339 26 49 2 338 356 11 22 49 63 85 58 19 28 35 24 29 25 1 7 82 36 26 76 81 108 127 129 158 344 34 51 41 27 21 17 47 79 93 112 111 91 65 298 275 120 121 102 98 96 86 83 75 70 68 58 57 61 59 56 48 38
203 278 301 357 287 212 212 244 234 233 259 258 239 354 284 257 217 102 25 305 303 49 76 359 326 301 259 176 135 117 316 5 38 44 48 46 57 60 21 16 26 30 39 33 356 21 87 36 359 59 67 61 70 72 77 71 58 59 53 36 20 14 36 64 75 100 103 114 177 198 152 109 108 95 92 89 82 80 75 68 65 60 56 59 61 56 47 36
175 262 290 301 307 243 219 239 233 220 242 256 254 127 281 287 233 148 175 281 299 284 138 126 290 269 251 235 139 112 100 90 72 61 95 54 19 27 47 15 4 24 43 47 11 35 82 356 328 59 81 70 74 72 70 75 71 62 53 42 26 16 28 46 34 36 86 122 153 136 111 87 89 98 91 83 76 72 68 59 53 54 57 60 62 58 48 40
173 5 310 324 321 300 254 243 229 204 208 239 40 145 191 236 243 204 174 136 66 314 168 162 284 299 347 4 34 94 124 130 125 122 127 110 49 1 99 142 291 21 57 55 1 47 87 240 282 32 72 76 91 88 77 81 85 70 50 35 31 27 20 27 22 12 58 105 120 115 108 91 79 89 82 75 71 67 63 56 48 45 47 54 62 59 49 44
256 288 305 355 306 274 247 236 211 162 153 60 102 131 188 209 209 239 299 89 156 230 211 273 1 21 20 14 26 57 75 84 81 17 355 93 149 191 167 167 177 138 104 69 14 60 100 168 275 37 63 351 90 99 90 87 85 69 44 21 19 36 32 22 26 9 42 117 120 109 109 117 104 90 76 66 64 64 62 56 52 47 42 47 54 53 45 39
304 286 267 224 250 262 245 221 157 126 117 200 149 129 161 239 197 161 318 329 323 199 144 88 61 53 34 28 35 35 38 44 36 1 338 340 297 218 178 159 165 149 137 144 122 104 128 136 153 116 97 6 84 113 106 90 75 52 28 2 356 19 74 52 34 29 36 89 114 106 103 107 96 87 79 70 63 62 58 51 49 52 49 48 49 49 46 40
Height
799 799 798 797 796 796 795 794 793 792 791 791 789 789 788 788 787 786 785 785 784 783 783 782 781 781 780 778 777 775 773 771 768 768 766 757 754 757 757 759 759 760 762 763 764 764 765 766 766 765 767 766 766 764 762 760 757 763 772 781 785 782 776 763 756 755 754 753 749 744 740 744 748 741 733 731 736 744 749 750 749 747 748 751 754 757 760 763
799 798 797 796 796 795 794 793 792 792 791 790 789 788 787 786 786 785 784 784 783 783 782 781 781 780 779 778 776 775 772 769 767 764 757 752 754 756 756 757 759 760 761 762 762 762 764 765 764 764 766 767 765 762 763 759 757 764 771 777 779 773 764 753 750 749 749 751 748 745 743 743 746 743 736 740 747 749 756 758 755 756 757 758 758 760 762 762
798 798 797 796 795 795 794 793 792 791 790 790 789 788 787 786 785 784 783 783 782 781 781 780 780 779 778 777 775 775 772 769 766 757 748 748 752 753 754 756 757 759 760 760 761 761 762 762 761 763 765 767 764 761 764 760 758 761 767 776 772 762 757 750 747 746 745 747 748 748 745 744 743 741 739 744 750 753 759 759 758 762 762 761 761 762 763 763
798 797 796 795 795 794 794 793 792 791 790 789 788 787 786 785 784 783 782 781 781 780 780 779 779 778 777 776 775 774 773 770 760 749 745 746 747 750 753 755 756 758 758 759 760 760 760 759 759 760 764 768 763 760 763 760 758 759 762 771 764 757 758 751 744 744 743 745 748 749 748 748 743 739 741 744 752 758 757 751 752 758 759 760 761 761 763 764
797 796 795 795 794 793 793 792 791 790 789 788 787 786 785 784 783 782 781 781 780 779 779 779 778 777 776 775 775 774 774 770 754 744 745 745 746 749 751 754 756 756 757 759 759 759 759 758 757 760 763 766 764 762 762 754 753 758 758 759 756 755 758 749 741 742 742 744 748 750 751 749 742 742 744 745 754 756 751 746 745 750 753 756 758 760 762 763
797 795 795 794 793 792 792 791 791 789 788 787 786 786 784 784 782 781 781 780 779 779 779 778 778 777 776 775 775 774 775 766 749 746 747 745 747 749 751 753 754 755 756 758 758 758 758 756 758 762 763 764 764 763 759 750 749 759 757 753 751 751 752 745 741 742 741 745 750 751 749 746 746 749 745 744 749 746 742 742 743 746 749 751 755 758 762 763
796 795 794 793 792 791 790 790 790 788 787 786 785 784 784 782 781 780 779 779 779 778 778 778 777 777 775 774 773 774 776 763 746 747 748 746 748 748 751 752 752 754 755 756 757 758 758 757 759 760 762 764 763 759 755 748 748 756 757 751 748 746 746 742 740 742 741 745 747 746 747 748 752 752 746 744 744 741 740 740 742 746 747 751 755 758 761 762
795 794 793 792 791 790 790 789 789 787 786 785 784 783 782 781 780 779 778 778 777 777 778 777 777 776 775 774 773 773 773 758 744 747 747 747 748 748 750 750 751 753 753 756 756 756 757 757 758 757 762 762 757 755 752 750 751 753 754 749 746 744 743 739 738 740 740 742 742 744 749 750 749 748 748 746 742 741 741 740 743 746 749 753 756 758 760 762
794 794 792 792 791 790 789 788 787 787 785 783 782 782 781 779 778 777 777 777 776 777 776 776 776 775 776 775 775 773 762 747 742 745 746 746 747 747 748 748 750 752 753 755 754 755 756 756 755 753 758 757 753 753 750 755 756 749 748 746 744 744 740 738 738 738 740 741 742 747 751 749 744 745 749 744 740 743 742 743 745 747 751 754 757 759 760 762
794 792 792 791 790 789 788 787 786 785 784 782 781 780 780 778 777 776 776 775 775 776 775 776 775 774 776 774 776 772 752 741 743 744 745 745 745 746 746 747 749 750 752 753 753 753 753 753 750 747 752 753 752 752 750 754 751 742 742 743 742 742 739 738 739 738 739 740 742 749 752 748 741 747 754 743 738 742 743 747 747 748 753 755 757 759 760 762
793 792 791 790 789 788 786 786 785 784 783 781 780 779 778 777 776 775 775 774 774 774 774 775 774 774 775 773 777 768 746 741 744 742 744 744 744 744 744 746 747 749 751 751 752 750 749 748 745 746 752 752 751 750 747 745 742 739 741 744 742 740 739 738 740 740 740 742 741 744 750 748 744 749 751 741 737 741 743 748 747 748 753 755 758 759 760 762
792 791 790 789 788 787 786 785 783 783 781 780 779 777 776 775 774 774 773 773 773 773 773 774 774 774 774 774 772 756 740 742 744 742 743 742 743 743 743 745 746 748 749 749 749 747 746 745 744 750 752 750 752 753 748 739 739 739 741 749 748 743 744 741 740 740 741 744 738 742 755 755 750 749 743 736 737 740 742 747 747 749 754 756 758 759 761 762
791 790 789 788 787 786 785 784 782 782 780 778 777 775 775 773 773 773 772 772 772 772 772 773 773 773 776 770 755 743 740 742 743 743 742 742 743 743 744 746 746 747 748 747 747 744 744 743 744 748 747 750 754 751 745 739 740 742 742 750 752 753 751 741 739 740 741 742 734 745 767 763 750 744 738 733 735 740 744 747 748 750 754 757 758 759 761 762
790 789 788 787 786 785 784 783 782 780 778 777 775 773 773 772 772 771 770 770 770 771 771 772 773 773 776 763 743 739 741 740 742 743 741 742 743 743 744 745 746 747 747 746 745 743 743 742 742 745 745 749 750 747 748 747 745 746 749 751 755 764 757 739 738 740 742 740 732 747 768 762 749 742 735 731 732 739 745 748 748 750 753 757 758 760 761 761
789 788 787 786 785 784 783 782 780 778 777 775 773 772 770 770 770 769 770 769 769 770 769 771 771 772 773 760 741 738 739 738 740 740 740 741 742 742 743 744 745 746 745 745 744 743 742 742 745 750 750 747 749 753 757 756 750 749 760 763 759 764 756 739 736 736 740 740 733 747 763 759 748 741 733 729 731 737 745 749 748 750 753 756 758 758 761 761
788 787 786 785 784 783 782 780 778 777 775 773 771 770 769 769 768 768 768 767 768 769 769 771 769 771 771 755 740 737 736 736 736 737 739 740 740 741 741 743 744 744 745 744 743 743 742 743 746 749 752 751 755 760 762 765 761 752 760 768 762 761 757 747 736 729 733 739 739 746 757 756 746 737 729 723 729 738 745 749 749 751 753 755 757 756 758 761
787 786 785 784 783 782 780 779 777 775 773 772 769 767 767 767 766 767 766 766 768 767 769 768 767 771 764 746 740 737 733 734 735 736 738 738 739 739 740 742 742 743 743 743 744 743 743 745 749 751 752 755 756 759 769 779 774 760 758 763 760 756 756 751 740 729 730 738 743 745 750 751 742 734 728 721 727 738 744 747 749 750 753 754 755 756 757 759
786 785 783 782 781 780 779 778 776 774 772 770 767 765 765 765 765 765 765 766 767 768 770 767 769 773 758 741 738 733 730 733 734 734 736 737 737 738 739 740 741 743 745 747 746 746 748 747 751 756 757 758 758 761 775 777 769 764 761 762 760 753 751 750 741 732 731 738 744 748 751 748 740 735 730 724 725 737 744 745 748 749 752 755 755 756 757 758
785 784 782 781 780 779 778 776 774 773 770 768 765 763 762 763 763 763 764 766 767 767 765 761 762 759 745 733 730 726 727 730 732 733 734 735 736 737 738 740 742 745 750 755 753 749 750 752 756 763 764 762 759 760 765 760 754 756 755 756 758 754 748 741 736 730 729 738 743 747 751 747 742 737 733 729 726 734 743 745 748 751 753 755 756 756 756 758
783 782 781 780 779 778 776 774 773 771 770 767 764 763 762 761 761 764 765 765 761 755 750 749 749 743 733 727 724 723 727 729 731 732 732 734 735 737 738 741 745 749 753 758 757 749 749 759 764 764 764 759 754 752 751 748 747 750 751 753 753 753 748 734 731 728 726 740 746 742 745 745 742 737 733 733 730 735 744 748 750 752 753 754 755 756 757 759
782 781 779 778 777 776 775 773 771 770 769 768 767 765 762 757 758 761 761 758 752 747 744 743 743 739 731 726 723 722 726 729 730 730 732 733 734 739 741 742 750 756 754 753 753 748 751 764 765 757 754 751 748 747 746 747 749 750 754 756 753 755 750 733 730 730 725 739 747 741 744 744 740 737 732 732 735 739 744 749 752 752 752 753 753 755 756 759
781 780 778 777 776 774 773 771 770 768 768 767 767 766 760 754 755 755 754 753 746 742 742 740 740 738 729 724 723 723 726 730 731 730 730 731 734 741 742 743 752 756 751 750 754 756 761 765 758 749 747 746 747 746 746 747 749 752 753 756 757 754 749 738 731 730 728 738 747 743 745 747 741 737 734 731 733 737 739 742 746 748 751 752 752 753 755 759
780 778 777 776 774 773 771 769 768 766 765 765 764 763 757 752 752 751 753 754 746 736 735 735 737 736 729 724 721 721 726 729 732 730 727 731 735 738 741 744 750 751 750 753 756 764 768 760 748 743 743 745 747 745 746 749 750 752 752 756 759 751 752 752 741 734 732 737 744 744 746 747 742 739 737 733 730 731 735 737 739 742 746 748 747 748 751 756
778 776 776 774 773 772 769 767 765 763 762 761 760 756 752 751 752 752 753 753 747 733 725 725 726 729 726 721 717 721 726 725 726 726 724 729 734 736 740 742 747 750 749 748 751 758 758 746 738 740 742 743 747 745 745 751 753 751 749 753 756 750 749 750 743 739 738 738 739 743 754 754 745 744 742 734 731 730 731 736 740 741 741 742 744 744 745 748
776 776 775 773 773 770 767 766 762 761 761 760 757 751 750 752 751 753 754 756 750 730 718 717 718 720 718 717 717 717 722 723 720 720 719 724 730 736 739 737 743 751 747 743 747 752 746 734 732 740 741 741 745 745 743 748 754 753 748 746 748 749 747 745 743 747 754 755 742 743 768 770 748 746 745 736 735 733 730 732 736 740 741 742 744 744 745 747
775 775 773 773 772 768 767 764 760 761 760 757 754 750 751 752 751 754 756 761 753 727 716 717 715 715 712 714 715 715 727 728 716 715 717 719 722 728 737 736 737 743 741 737 741 743 737 729 729 736 739 739 743 744 739 740 752 757 748 741 743 746 748 746 745 752 764 764 746 742 769 777 758 749 745 738 738 735 732 730 729 733 739 740 741 742 746 749
775 774 772 772 770 769 768 763 761 761 757 754 751 751 753 750 752 753 756 767 753 718 713 717 711 710 708 709 711 719 734 727 715 715 715 718 719 721 734 737 735 738 731 733 744 740 729 729 730 731 736 740 744 745 736 734 750 756 744 739 744 746 747 746 746 755 758 753 749 745 756 772 769 753 740 738 742 740 737 734 729 728 732 734 737 739 743 746
774 772 772 771 769 770 768 764 763 759 756 754 750 752 752 750 753 753 761 771 742 705 708 713 707 706 705 706 709 717 723 716 719 721 711 715 719 720 733 734 733 735 725 733 750 737 723 728 731 729 735 740 739 737 731 731 745 748 738 738 743 743 745 744 748 755 750 752 764 755 749 770 773 751 737 736 741 746 747 743 736 731 731 733 737 739 743 747
773 772 771 770 768 767 766 765 763 758 755 753 751 753 751 751 754 754 766 763 723 699 706 707 707 708 706 708 711 714 714 712 719 717 709 716 718 718 730 729 728 733 726 729 741 732 721 722 721 724 733 735 730 726 725 731 739 737 734 738 740 740 742 745 751 756 754 763 776 762 752 772 776 754 745 744 744 749 751 747 741 735 735 737 739 743 747 750
772 771 770 769 767 765 765 764 760 757 755 752 753 752 751 754 754 760 772 751 712 704 708 707 710 710 709 714 716 716 716 715 713 711 713 718 717 719 723 721 723 731 729 727 729 726 718 714 712 717 723 723 722 723 724 729 732 731 735 740 743 743 742 746 750 753 766 778 776 761 753 767 777 763 754 754 750 748 748 747 745 741 740 742 743 745 748 749
771 770 769 768 767 766 765 762 757 757 756 754 754 752 753 757 757 766 762 727 706 710 710 711 712 707 710 718 721 720 719 717 711 713 719 720 723 727 726 727 729 733 737 735 731 725 719 719 717 713 713 714 720 726 726 726 727 732 738 743 752 756 751 756 758 759 780 788 771 758 752 761 778 773 760 756 750 746 746 748 749 747 746 747 747 748 749 751
769 768 767 766 765 765 763 758 756 757 756 754 754 753 756 760 762 764 744 715 715 718 709 712 712 706 710 715 718 719 719 720 714 713 719 723 730 732 731 736 736 743 751 746 740 733 726 723 719 713 710 712 724 734 733 729 729 734 740 747 762 773 773 779 780 776 785 783 763 753 754 764 776 771 761 757 750 748 748 748 750 751 750 749 750 752 752 755
767 766 765 764 763 762 759 756 756 757 756 755 755 754 758 765 760 749 735 723 720 709 698 703 705 704 710 715 717 715 716 719 713 712 715 719 730 733 730 730 728 740 750 744 744 744 737 727 718 719 717 712 723 738 743 740 735 737 743 752 767 779 789 795 790 786 785 775 758 748 754 772 780 769 760 757 753 751 749 749 751 752 753 754 756 757 758 759
765 763 761 759 759 757 755 756 756 757 758 756 757 757 761 765 751 733 729 725 712 700 694 697 700 704 709 713 713 709 716 719 709 710 715 719 732 736 732 730 726 731 739 742 744 743 748 744 728 724 722 715 719 728 735 736 736 737 735 744 760 767 780 789 784 782 782 772 760 752 760 778 782 772 760 756 755 753 753 753 753 754 756 758 761 762 764 766
761 759 757 755 753 752 751 754 755 757 760 758 758 760 761 759 744 731 727 717 707 701 692 688 696 706 709 709 705 700 709 715 708 709 716 721 731 734 731 730 726 726 735 746 743 735 745 744 723 716 716 713 719 720 721 731 741 737 729 741 755 752 758 771 769 766 770 774 769 764 772 776 771 766 757 754 758 758 758 759 759 763 765 764 767 769 771 772
758 756 754 752 749 748 749 752 754 757 759 759 759 760 756 746 735 727 718 708 706 703 696 694 699 708 713 709 704 700 702 707 707 712 718 720 724 726 724 723 721 722 730 740 739 734 742 737 715 711 714 711 717 719 718 731 743 738 736 746 744 733 741 761 766 759 763 780 774 765 779 781 772 770 761 757 765 766 766 768 768 771 771 770 772 774 774 774
757 754 752 748 745 746 747 749 753 756 758 759 760 755 746 735 725 720 711 703 703 701 702 708 708 710 716 713 707 704 703 704 706 712 720 722 721 719 718 717 715 716 720 727 731 729 736 737 716 709 719 713 710 716 717 719 728 738 744 740 731 731 738 750 766 768 771 785 775 762 778 786 782 784 773 764 772 776 776 777 777 778 777 777 778 778 778 777
756 754 749 744 742 744 746 748 752 755 757 759 760 751 740 731 722 716 711 704 704 704 706 713 712 709 712 714 709 701 701 709 710 711 719 723 719 713 711 713 712 710 710 718 727 723 727 741 726 708 716 714 705 717 727 719 717 728 733 725 730 751 755 752 764 773 777 786 778 768 778 786 787 790 783 776 779 782 783 783 784 785 785 785 786 784 784 784
757 754 747 739 739 742 745 749 751 754 757 759 758 748 736 728 718 712 710 706 706 709 711 712 710 708 709 709 706 700 701 708 710 711 718 720 719 716 711 710 710 709 705 710 723 721 722 740 738 715 710 714 711 722 737 733 722 721 725 724 728 742 750 751 754 760 769 780 779 776 785 792 792 791 789 787 785 784 785 786 788 791 790 790 790 789 789 788
755 753 745 736 738 742 745 749 751 754 757 754 751 742 731 723 714 707 707 707 708 710 713 715 713 714 716 709 702 702 702 703 705 711 716 716 721 724 715 709 712 712 705 705 713 718 721 735 743 726 715 721 725 723 728 734 730 729 734 737 735 733 736 743 746 745 755 771 775 778 791 796 789 785 789 790 786 783 783 787 791 792 792 793 792 791 790 789
754 754 746 736 738 742 745 751 753 753 754 749 743 738 730 721 712 706 706 707 709 709 710 715 716 717 720 714 707 706 703 702 705 709 714 717 724 729 718 710 714 715 711 710 712 716 723 733 739 734 729 733 729 715 712 719 723 728 734 735 737 738 739 751 759 748 744 759 768 774 791 797 786 783 788 789 786 782 781 785 791 792 793 795 794 792 790 789
754 754 747 738 740 742 746 753 752 749 749 744 738 733 726 718 711 708 707 708 711 710 708 711 714 714 715 714 711 709 706 708 710 712 717 721 725 729 721 711 712 713 716 723 721 715 718 727 736 736 732 730 721 709 707 710 711 718 725 726 729 734 740 754 764 754 747 757 765 771 787 793 786 785 789 789 787 784 782 785 790 793 794 794 794 792 791 791
752 750 744 740 741 742 748 753 749 747 744 737 731 727 720 713 710 709 709 710 712 713 712 712 712 713 713 711 710 711 711 714 717 718 722 723 723 725 721 715 714 715 720 729 729 719 717 726 737 740 732 724 718 711 706 706 710 720 727 726 726 729 732 739 744 745 751 760 765 775 791 794 787 785 787 788 787 785 785 787 790 794 795 794 794 793 793 793
749 747 744 742 741 743 749 750 747 745 741 734 730 725 716 710 711 713 713 712 711 712 716 715 712 712 712 709 711 713 713 718 720 719 722 726 725 723 721 719 719 722 728 733 731 727 729 732 737 746 749 743 737 732 726 725 729 735 739 738 735 730 727 732 736 741 754 760 758 771 791 793 787 784 785 787 787 788 789 790 792 795 796 796 796 795 794 795
751 750 747 743 742 744 747 745 744 745 741 736 731 724 717 714 712 713 715 714 710 710 716 717 712 712 712 710 714 714 713 719 722 719 722 727 727 725 725 723 723 727 730 730 726 726 733 737 738 749 761 763 763 761 759 756 749 746 748 749 748 741 736 742 748 751 762 768 765 774 789 792 788 787 789 789 790 794 795 795 797 798 799 800 799 798 798 797
753 752 750 746 743 744 745 742 742 745 742 739 733 724 721 721 715 711 714 716 712 709 715 716 713 715 717 716 721 722 718 718 719 720 725 731 733 732 729 726 727 729 728 726 725 727 734 741 744 750 756 761 766 766 763 760 757 757 760 759 757 753 746 746 755 762 769 776 783 789 790 790 791 790 792 794 795 798 799 799 801 801 801 802 801 802 802 800
755 753 750 748 746 746 745 742 741 742 738 734 731 725 724 725 720 717 717 718 715 713 717 718 716 720 723 722 726 730 727 723 726 730 734 737 737 736 732 729 730 730 729 728 729 730 739 748 749 749 752 752 755 758 757 758 760 764 769 768 764 760 754 752 759 767 769 776 790 795 789 789 794 793 795 799 800 801 803 803 805 804 803 803 805 806 806 805
754 752 746 745 746 745 744 741 737 737 735 730 727 726 726 726 725 725 724 720 717 717 721 725 723 722 722 722 727 732 730 731 738 742 740 740 740 738 737 735 734 734 733 735 735 736 747 757 752 749 753 751 750 754 757 759 763 766 770 774 772 767 763 763 766 766 767 774 786 790 788 791 795 796 799 802 802 804 806 806 807 807 806 807 809 811 811 811
750 751 747 744 744 742 740 737 732 734 735 730 726 727 728 728 727 726 724 723 723 721 723 730 729 722 720 719 724 732 735 739 746 745 741 743 744 743 744 743 740 738 737 740 742 740 752 765 759 750 754 755 753 757 758 760 765 770 774 777 778 775 772 770 771 768 769 777 783 787 794 799 799 799 801 803 805 807 808 809 810 811 812 812 813 815 816 816
748 750 748 747 746 743 741 736 730 729 730 728 728 728 727 729 729 724 721 724 729 727 724 729 728 722 722 722 725 733 735 736 743 742 738 743 746 744 746 747 745 742 741 744 745 742 751 766 762 752 756 759 757 760 762 764 770 777 782 782 781 781 779 777 777 775 776 784 790 792 797 802 801 802 803 806 808 809 812 816 818 818 818 817 817 819 819 819
748 747 747 751 750 743 737 730 723 725 728 728 730 729 727 728 727 724 722 721 725 727 725 727 728 725 726 728 731 735 732 730 736 736 733 737 740 739 741 742 743 745 745 745 747 745 749 760 761 758 762 766 762 764 768 769 771 780 790 792 787 785 787 786 785 783 782 786 792 794 796 801 804 807 810 812 814 815 818 821 823 824 824 822 823 823 822 822
748 746 746 750 749 737 728 724 721 726 730 728 726 727 728 727 722 723 727 723 720 722 721 723 727 729 732 737 738 736 731 730 733 733 730 731 732 732 733 734 736 741 744 745 748 748 747 755 760 761 766 771 766 765 769 770 773 784 795 799 795 790 790 791 790 790 786 786 791 795 797 802 808 811 815 820 822 823 825 826 827 827 827 827 827 827 827 826